Location: Malvern Link
(52.1333°N, 2.3000°W)
Time: 15:48:13
(UTC+00:00)

SO-50 - Pass Details

Date: 11 July 2022
Orbit: 585 x 698 km, 64.6° (Epoch: 11 August)

Event Time Altitude Azimuth Distance (km) Brightness Sun altitude
Rises 23:45:44 0° 257° (WSW) 2,999 ? -15.6°
Reaches altitude 10° 23:48:14 10° 267° (W) 2,106 ? -15.6°
Maximum altitude 23:52:34 33° 331° (NNW) 1,157 ? -15.7°
Drops below altitude 10° 23:57:01 10° 36° (NE) 2,158 ? -15.8°
Sets 23:59:36 0° 46° (NE) 3,085 ? -15.8°
